#timestamp,LO_Frequency,Hit,StdDev 
1635030015.4,286047000.8,N
1635030035.2,286047000.7,N
1635030055.1,286046998.5,N
1635030056.0,286046998.5,N
1635030075.8,286046998.9,N
1635030095.6,286046997.2,N
1635030115.5,286046999.2,N
1635030135.3,286047000.5,N
1635030155.1,286047002.5,N
1635030175.9,286047000.1,N
1635030195.7,286047000.9,N
1635030215.6,286047000.8,N
1635030235.4,286047001.8,N
1635030255.2,286047005.6,Y
1635030275.1,286047003.1,P
1635030276.0,286047003.1,N
1635030295.8,286047003.0,N
1635030315.7,286047005.1,Y
1635030335.5,286047003.0,P
1635030355.3,286047004.0,P
1635030375.2,286047001.4,N
1635030395.0,286047001.9,N
1635030395.9,286047001.9,N
1635030415.8,286047004.1,Y
1635030435.6,286047000.6,P
1635030455.4,286047002.5,N
1635030475.3,286047000.2,N
1635030495.1,286047000.8,N
1635030515.8,286046999.5,N
1635030535.7,286046997.8,N
1635030555.5,286046997.1,N
1635030575.4,286046997.8,N
1635030595.2,286046996.6,N
1635030615.0,286046995.2,N
1635030615.9,286046995.2,N
1635030635.8,286046996.2,N
1635030655.6,286046995.7,N
1635030675.4,286046993.7,N
1635030695.3,286046997.5,N
1635030715.1,286046998.3,N
1635030735.9,286047000.8,N
1635030755.7,286047000.6,N
1635030775.5,286047000.2,N
1635030795.4,286047000.0,N
1635030815.2,286047002.0,N
1635030835.0,286047004.0,N
1635030835.9,286047004.0,N
1635030855.8,286047001.3,N
1635030875.6,286047002.9,N
1635030895.5,286047003.1,N
1635030915.3,286047004.6,N
1635030935.1,286047003.5,N
1635030955.9,286047002.0,N
1635030975.7,286047003.6,N
1635030995.5,286047005.2,N
1635031015.4,286047003.5,N
1635031035.2,286047001.7,N
1635031055.1,286047003.9,N
1635031056.0,286047003.9,N
1635031075.8,286047001.8,N
1635031095.6,286047002.6,N
1635031115.5,286047000.9,N
1635031135.3,286047002.2,N
1635031155.1,286047001.7,N
1635031175.9,286047004.3,N
1635031195.7,286047003.6,N
1635031215.6,286047005.9,N
1635031235.4,286047001.7,N
1635031255.2,286047001.4,N
1635031275.1,286047006.0,Y
1635031276.0,286047006.0,P
1635031295.8,286047002.0,N
1635031315.7,286047003.0,N
1635031335.5,286047002.9,N
1635031355.3,286047004.2,N
1635031375.2,286047002.9,N
1635031395.9,286047004.2,Y
1635031415.7,286047001.2,P
1635031435.6,286046999.8,N
1635031455.4,286046998.2,N
1635031475.3,286046998.1,N
1635031495.1,286047000.0,N
1635031496.0,286047000.0,N
1635031515.8,286046996.8,N
1635031535.7,286046998.7,N
1635031555.5,286047000.1,N
1635031575.3,286047002.0,N
1635031595.2,286047002.4,N
1635031615.0,286047002.7,N
1635031615.9,286047002.7,N
1635031635.8,286046999.8,N
1635031655.6,286047001.7,N
1635031675.4,286047004.3,N
1635031695.3,286047004.3,N
1635031715.1,286047005.6,N
1635031735.8,286047005.4,N
1635031755.7,286047004.5,N
1635031775.5,286047005.1,N
1635031795.4,286047007.5,N
1635031815.2,286047007.5,N
1635031835.0,286047005.6,N
1635031835.9,286047005.6,N
1635031855.8,286047007.0,N
1635031875.6,286047005.3,N
1635031895.4,286047005.9,N
1635031915.3,286047005.5,N
1635031935.1,286047002.9,N
1635031955.9,286047006.4,N
1635031975.7,286047005.2,N
1635031995.5,286047005.7,N
1635032015.4,286047005.3,N
1635032035.2,286047007.6,N
1635032055.0,286047006.9,N
1635032056.0,286047006.9,N
1635032075.8,286047009.2,Y
1635032095.6,286047004.4,P
1635032115.5,286047001.3,P
1635032135.3,286047000.2,N
1635032155.1,286047000.5,N
1635032175.9,286046998.5,N
1635032195.7,286047002.7,N
1635032215.6,286047001.4,N
1635032235.4,286047004.2,N
1635032255.2,286047001.4,N
1635032275.1,286047001.3,N
1635032276.0,286047001.3,N
1635032295.8,286047003.6,N
1635032315.6,286047004.4,N
1635032335.5,286047003.6,N
1635032355.3,286047004.4,N
1635032375.2,286047002.0,N
1635032395.9,286047004.1,N
1635032415.7,286047003.6,N
1635032435.6,286047003.6,N
1635032455.4,286047004.7,N
1635032475.2,286047005.5,Y
1635032495.1,286047002.6,P
1635032496.0,286047002.6,P
1635032515.8,286047000.8,P
1635032535.7,286047000.6,N
1635032555.5,286047001.5,N
1635032575.3,286047001.5,N
1635032595.2,286047003.7,Y
1635032615.0,286046999.7,P
1635032615.9,286046999.7,N
1635032635.8,286047002.8,N
1635032655.6,286047000.1,N
1635032675.4,286046999.8,N
1635032695.3,286047000.1,N
1635032715.1,286046999.0,N
1635032735.8,286047000.7,N
1635032755.7,286047002.5,N
1635032775.5,286047003.6,N
1635032795.4,286047001.9,N
1635032815.2,286047002.7,N
1635032835.0,286047000.4,N
1635032835.9,286047000.4,N
1635032855.8,286047001.5,N
1635032875.6,286047000.4,N
1635032895.5,286047000.7,N
1635032915.3,286047000.1,N
1635032935.1,286046998.1,N
1635032955.9,286046999.4,N
1635032975.7,286046999.1,N
1635032995.5,286046999.2,N
1635033015.4,286046999.0,N
1635033035.2,286046999.3,N
1635033055.1,286046998.8,N
1635033056.0,286046998.8,N
1635033075.8,286047000.6,N
1635033095.6,286046999.1,N
1635033115.5,286046998.8,N
1635033135.3,286046997.0,N
1635033155.1,286046998.8,N
1635033175.9,286047000.2,N
1635033195.7,286047000.8,N
1635033215.6,286047004.4,Y
1635033235.4,286047004.2,P
1635033255.2,286047003.7,N
1635033275.1,286047002.3,N
1635033276.0,286047002.3,N
1635033295.8,286047001.0,N
1635033315.7,286047001.3,N
1635033335.5,286047001.9,N
1635033355.3,286047002.8,N
1635033375.2,286047003.9,Y
1635033395.9,286047004.4,P
1635033415.7,286047000.6,N
1635033435.6,286047000.1,N
1635033455.4,286046998.2,N
1635033475.3,286046998.4,N
1635033495.1,286047002.3,N
1635033496.0,286047002.3,N
1635033515.8,286047003.6,N
1635033535.7,286047003.4,N
1635033555.5,286047003.5,N
1635033575.3,286047003.9,N
1635033595.2,286047004.7,N
